This is the latest recevied weather packets stored in our database for station/object KB2AHZ. If no packets are shown the sender has not sent any weather packets the latest 10 day(s).
| Time | Temp. | Humidity | Pressure | Rain* | Wind** | Luminosity | Snow |
|---|---|---|---|---|---|---|---|
| 1777856869 | 11.11° C | 56% | 1017.2 hPa | 0 mm | - | 0 W/m² | - |
| 1777856564 | 11.11° C | 55% | 1017 hPa | 0 mm | - | 0 W/m² | - |
| 1777856262 | 11.11° C | 59% | 1016.9 hPa | 0 mm | - | 0 W/m² | - |
| 1777855958 | 11.11° C | 62% | 1017.2 hPa | 0 mm | - | 0 W/m² | - |
| 1777855656 | 11.11° C | 59% | 1016.8 hPa | 0 mm | - | 0 W/m² | - |
| 1777855353 | 11.67° C | 58% | 1016.8 hPa | 0 mm | - | 0 W/m² | - |
| 1777855050 | 11.67° C | 55% | 1016.8 hPa | 0 mm | - | 0 W/m² | - |
| 1777854747 | 12.22° C | 52% | 1016.7 hPa | 0 mm | - | 0 W/m² | - |
| 1777854443 | 12.22° C | 52% | 1016.5 hPa | 0 mm | - | 0 W/m² | - |
| 1777854140 | 12.22° C | 54% | 1016.5 hPa | 0 mm | - | 0 W/m² | - |
| 1777853838 | 12.78° C | 54% | 1016.5 hPa | 0 mm | - | 0 W/m² | - |
| 1777853535 | 12.78° C | 51% | 1016.5 hPa | 0 mm | - | 1 W/m² | - |
| 1777853231 | 12.78° C | 50% | 1016.4 hPa | 0 mm | - | 2 W/m² | - |
| 1777852928 | 13.33° C | 50% | 1016.3 hPa | 0 mm | - | 4 W/m² | - |
| 1777852627 | 13.33° C | 51% | 1016.3 hPa | 0 mm | - | 6 W/m² | - |
| 1777852324 | 13.33° C | 50% | 1016.2 hPa | 0 mm | - | 9 W/m² | - |
| 1777852021 | 13.89° C | 49% | 1016.4 hPa | 0 mm | - | 12 W/m² | - |
| 1777851720 | 13.89° C | 50% | 1016.4 hPa | 0 mm | - | 15 W/m² | - |
| 1777851416 | 13.89° C | 49% | 1016 hPa | 0 mm | - | 18 W/m² | - |
| 1777851112 | 14.44° C | 48% | 1016.2 hPa | 0 mm | - | 21 W/m² | - |
| 1777850808 | 14.44° C | 46% | 1016.3 hPa | 0 mm | - | 24 W/m² | - |
| 1777850506 | 15° C | 46% | 1016.1 hPa | 0 mm | - | 26 W/m² | - |
| 1777850204 | 15° C | 45% | 1016.5 hPa | 0 mm | - | 28 W/m² | - |
| 1777849900 | 15.56° C | 44% | 1016.2 hPa | 0 mm | - | 30 W/m² | - |
| 1777849597 | 15.56° C | 42% | 1016.5 hPa | 0 mm | - | 32 W/m² | - |
* Rain latest hour (hover to see other rain measurements)
** Current wind speed in m/s (hover to see current wind gust speed)